This demonstration page uses our WeatherBlox Daily Observations layout. Learn more.

Left ArrowRight Arrow

39.92423, -83.80882

Hourly Observations for January 12, 2019

Temp ( °F °C ) Dew Point ( °F °C ) Humidity (%) Winds ( mph kmh ) Pressure ( in mb ) Visibility ( mi km ) Precip ( " mm )
12:56 am 00:56 Cloudy 27 -2.8 22 -5.6 81 81 ESE 8 13 30.37 1029 10 16 N/A
1:56 am 01:56 Cloudy 27 -2.8 22 -5.6 81 81 ESE 6 9 30.38 1029 10 16 N/A
2:56 am 02:56 Cloudy 27 -2.8 22 -5.6 81 81 ESE 8 13 30.39 1029 10 16 N/A
3:56 am 03:56 Cloudy 27 -2.8 22 -5.6 81 81 ESE 8 13 30.37 1029 10 16 N/A
4:56 am 04:56 Cloudy 27 -2.8 22 -5.6 81 81 ESE 8 13 30.36 1028 10 16 N/A
5:49 am 05:49 Cloudy with Light Snow 27 -3 25 -4 93 93 ESE 8 13 30.39 1029 4 6 N/A
5:56 am 05:56 Cloudy with Light Snow 26 -3.3 24 -4.4 92 92 ESE 7 11 30.37 1029 3 4 N/A
6:06 am 06:06 Cloudy with Light Snow 27 -3 25 -4 93 93 ESE 8 13 30.39 1029 2 3 N/A
6:35 am 06:35 Cloudy with Light Snow 27 -3 25 -4 93 93 E 9 15 30.39 1029 1 2 N/A
6:44 am 06:44 Cloudy with Light Snow 27 -3 25 -4 93 93 E 12 19 30.39 1029 1 2 0.01 0.25
6:56 am 06:56 Cloudy with Light Snow 25 -3.9 25 -3.9 100 100 E 12 19 30.37 1028 1 2 0.01 0.25
7:09 am 07:09 Cloudy with Light Snow 25 -4 25 -4 100 100 E 9 15 30.39 1029 1 2 0.01 0.25
7:49 am 07:49 Cloudy with Light Snow 25 -4 25 -4 100 100 E 9 15 30.39 1029 1 2 0.03 0.76
7:53 am 07:53 Cloudy with Light Snow 25 -4 25 -4 100 100 E 9 15 30.39 1029 1 1 0.03 0.76
7:56 am 07:56 Cloudy with Light Snow 25 -3.9 25 -3.9 100 100 E 9 15 30.37 1028 1 1 0.03 0.76
8:05 am 08:05 Cloudy with Snow 25 -4 25 -4 100 100 E 7 11 30.39 1029 1 1 N/A
8:12 am 08:12 Cloudy with Snow 25 -4 25 -4 100 100 E 8 13 30.39 1029 1 1 N/A
8:39 am 08:39 Cloudy with Light Snow 27 -3 25 -4 93 93 E 8 13 30.39 1029 1 1 0.02 0.51
8:44 am 08:44 Cloudy with Light Snow 27 -3 25 -4 93 93 E 8 13 30.39 1029 1 2 0.02 0.51
8:54 am 08:54 Cloudy with Light Snow 27 -3 25 -4 93 93 E 9 15 30.39 1029 1 1 0.02 0.51
8:56 am 08:56 Cloudy with Light Snow 26 -3.3 25 -3.9 96 96 E 9 15 30.38 1029 1 1 0.02 0.51
9:32 am 09:32 Cloudy with Light Snow 27 -3 25 -4 93 93 E 8 13 30.39 1029 1 2 0.02 0.51
9:56 am 09:56 Cloudy with Light Snow 26 -3.3 25 -3.9 96 96 E 12 19 30.40 1029 1 2 0.02 0.51
10:01 am 10:01 Cloudy with Light Snow 27 -3 25 -4 93 93 E 9 15 30.42 1030 1 1 N/A
10:19 am 10:19 Cloudy with Light Snow 27 -3 27 -3 100 100 E 10 17 30.42 1030 1 2 0.02 0.51
10:56 am 10:56 Cloudy with Light Snow 27 -2.8 25 -3.9 92 92 E 14 22 30.40 1029 1 2 0.02 0.51
11:17 am 11:17 Cloudy with Light Snow 27 -3 27 -3 100 100 ESE 12 19 30.42 1030 2 3 0.02 0.51
11:31 am 11:31 Cloudy with Light Snow 27 -3 25 -4 93 93 E 10 17 30.39 1029 1 2 0.02 0.51
11:33 am 11:33 Cloudy with Light Snow 27 -3 25 -4 93 93 E 12 19 30.39 1029 1 1 0.02 0.51
11:38 am 11:38 Cloudy with Snow 27 -3 27 -3 100 100 E 9 15 30.39 1029 1 1 0.02 0.51
11:45 am 11:45 Cloudy with Light Snow 27 -3 27 -3 100 100 E 10 17 30.39 1029 1 1 0.02 0.51
11:53 am 11:53 Cloudy with Light Snow 27 -3 27 -3 100 100 E 12 19 30.39 1029 1 2 0.03 0.76
11:56 am 11:56 Cloudy with Light Snow 27 -2.8 26 -3.3 96 96 E 14 22 30.37 1029 1 2 0.03 0.76
11:59 am 11:59 Cloudy with Light Snow 27 -3 27 -3 100 100 ESE 13 20 30.39 1029 1 2 N/A
12:27 pm 12:27 Cloudy with Light Snow 27 -3 27 -3 100 100 E 12 19 30.39 1029 1 1 0.01 0.25
12:56 pm 12:56 Cloudy with Light Snow 27 -2.8 26 -3.3 96 96 E 12 19 30.34 1028 1 2 0.01 0.25
1:12 pm 13:12 Cloudy with Light Snow 28 -2 27 -3 93 93 E 13 20 30.36 1028 1 1 0.01 0.25
1:15 pm 13:15 Cloudy with Light Snow 28 -2 27 -3 93 93 E 13 20 30.36 1028 1 2 0.01 0.25
1:22 pm 13:22 Cloudy with Light Snow 28 -2 27 -3 93 93 E 14 22 30.36 1028 2 3 0.01 0.25
1:41 pm 13:41 Cloudy with Light Snow 28 -2 27 -3 93 93 E 12 19 30.39 1029 3 5 0.01 0.25
1:56 pm 13:56 Cloudy with Light Snow 28 -2.2 26 -3.3 92 92 E 13 20 30.32 1027 3 4 0.01 0.25
2:07 pm 14:07 Cloudy with Light Snow 28 -2 27 -3 93 93 E 12 19 30.36 1028 1 2 N/A
2:12 pm 14:12 Cloudy with Light Snow 28 -2 27 -3 93 93 E 10 17 30.36 1028 1 1 N/A
2:22 pm 14:22 Cloudy with Snow 28 -2 27 -3 93 93 E 10 17 30.36 1028 1 1 N/A
2:30 pm 14:30 Cloudy with Light Snow 28 -2 27 -3 93 93 E 12 19 30.36 1028 1 2 N/A
2:38 pm 14:38 Cloudy with Light Snow 28 -2 27 -3 93 93 E 13 20 30.36 1028 1 2 0.01 0.25
2:48 pm 14:48 Cloudy with Light Snow 28 -2 27 -3 93 93 E 12 19 30.36 1028 1 1 0.01 0.25
2:56 pm 14:56 Cloudy with Snow 28 -2.2 27 -2.8 96 96 E 12 19 30.31 1026 1 1 0.01 0.25
3:12 pm 15:12 Cloudy with Light Snow 28 -2 27 -3 93 93 E 13 20 30.33 1027 1 2 N/A
3:42 pm 15:42 Cloudy with Light Snow 28 -2 27 -3 93 93 E 10 17 30.36 1028 1 1 N/A
3:56 pm 15:56 Cloudy with Light Snow 28 -2.2 27 -2.8 96 96 E 10 17 30.31 1026 1 1 N/A
4:04 pm 16:04 Cloudy with Snow 28 -2 27 -3 93 93 E 12 19 30.36 1028 1 1 N/A
4:29 pm 16:29 Cloudy with Light Snow 28 -2 27 -3 93 93 E 12 19 30.33 1027 1 1 N/A
4:37 pm 16:37 Cloudy with Light Snow 28 -2 27 -3 93 93 E 13 20 30.33 1027 1 2 N/A
4:54 pm 16:54 Cloudy with Light Snow 28 -2 27 -3 93 93 E 12 19 30.33 1027 2 2 N/A
4:56 pm 16:56 Cloudy with Light Snow 28 -2.2 27 -2.8 96 96 E 13 20 30.30 1026 2 2 N/A
5:13 pm 17:13 Cloudy with Light Snow 28 -2 27 -3 93 93 E 12 19 30.33 1027 1 2 0.01 0.25
5:29 pm 17:29 Cloudy with Light Snow 28 -2 27 -3 93 93 E 14 22 30.33 1027 1 2 0.01 0.25
5:45 pm 17:45 Cloudy with Light Snow 28 -2 28 -2 100 100 E 15 24 30.33 1027 2 3 0.01 0.25
5:56 pm 17:56 Cloudy with Light Snow 28 -2.2 28 -2.2 100 100 E 13 20 30.28 1025 3 5 0.02 0.51
6:34 pm 18:34 Cloudy with Light Snow 28 -2 28 -2 100 100 E 14 22 30.33 1027 2 3 N/A
6:38 pm 18:38 Cloudy with Light Snow 28 -2 28 -2 100 100 E 14 22 30.33 1027 2 3 N/A
6:46 pm 18:46 Cloudy with Light Snow 28 -2 28 -2 100 100 ENE 14 22 30.33 1027 2 3 N/A
6:56 pm 18:56 Cloudy with Light Snow 28 -2.2 28 -2.2 100 100 ENE 16 26 30.28 1026 2 3 N/A
6:58 pm 18:58 Cloudy with Light Snow 28 -2 28 -2 100 100 E 15 24 30.33 1027 2 3 N/A
7:09 pm 19:09 Cloudy with Light Snow 28 -2 28 -2 100 100 E 13 20 30.33 1027 2 2 N/A
7:16 pm 19:16 Cloudy with Light Snow 28 -2 28 -2 100 100 ESE 10 17 30.36 1028 1 2 N/A
7:24 pm 19:24 Cloudy with Snow 28 -2 28 -2 100 100 E 13 20 30.36 1028 1 1 N/A
7:41 pm 19:41 Cloudy with Light Snow 28 -2 28 -2 100 100 E 10 17 30.33 1027 1 2 N/A
7:44 pm 19:44 Cloudy with Light Snow 28 -2 28 -2 100 100 E 12 19 30.33 1027 1 2 N/A
7:56 pm 19:56 Cloudy with Light Snow 28 -2.2 28 -2.2 100 100 E 12 19 30.30 1026 2 2 N/A
8:03 pm 20:03 Cloudy with Light Snow 28 -2 28 -2 100 100 E 12 19 30.33 1027 2 3 N/A
8:20 pm 20:20 Cloudy with Light Snow 28 -2 28 -2 100 100 E 10 17 30.36 1028 2 3 N/A
8:29 pm 20:29 Cloudy with Light Snow 28 -2 28 -2 100 100 E 12 19 30.33 1027 2 2 N/A
8:36 pm 20:36 Cloudy with Light Snow 28 -2 28 -2 100 100 E 10 17 30.33 1027 1 2 N/A
8:56 pm 20:56 Cloudy with Light Snow 28 -2.2 28 -2.2 100 100 E 13 20 30.29 1026 1 2 N/A
9:29 pm 21:29 Cloudy with Light Snow 28 -2 28 -2 100 100 E 13 20 30.33 1027 2 3 N/A
9:56 pm 21:56 Cloudy with Light Snow 28 -2.2 28 -2.2 100 100 E 13 20 30.28 1025 2 3 N/A
10:11 pm 22:11 Cloudy with Light Snow 28 -2 28 -2 100 100 ENE 12 19 30.33 1027 3 5 N/A
10:25 pm 22:25 Cloudy with Light Snow 28 -2 28 -2 100 100 E 10 17 30.33 1027 3 4 N/A
10:49 pm 22:49 Cloudy with Light Snow 28 -2 28 -2 100 100 E 10 17 30.33 1027 3 5 N/A
10:56 pm 22:56 Cloudy with Light Snow 28 -2.2 28 -2.2 100 100 ENE 12 19 30.28 1025 3 5 N/A
11:03 pm 23:03 Cloudy with Light Snow 28 -2 28 -2 100 100 ENE 12 19 30.33 1027 3 5 N/A
11:12 pm 23:12 Cloudy with Light Snow 28 -2 28 -2 100 100 ENE 13 20 30.33 1027 4 6 N/A
11:56 pm 23:56 Cloudy 28 -2.2 27 -2.8 96 96 ENE 14 22 30.24 1024 7 11 N/A

Powered by AerisWeather